LAN507 SCEL-SCPC

Flight info

Callsign LAN507
Flight time N/A
Altitude 33000
Route LINER6C LINER UQ805 TOSET DCT 390540S0714570W 391310S0714870W 391710S0714930W DCT 391810S0715120W
Aircraft A319/M-SDE3FGHIRWY/LB1

Departure

Time 2026-05-05 18:10
Airport Comodoro Arturo Merino Benítez International Airport (SCEL)

Arrival

Time N/A
Airport Pucón Airport (SCPC)
Time Latitude Longitude Altitude Speed Heading
2026-05-05 17:34 -33.39603 -70.79607 1565 ft 0 kts 177°
2026-05-05 18:00 -33.39602 -70.79607 1564 ft 2 kts 177°
2026-05-05 18:00 -33.39577 -70.79609 1564 ft 3 kts 176°
2026-05-05 18:00 -33.39556 -70.79609 1564 ft 3 kts 177°
2026-05-05 18:01 -33.39533 -70.79607 1564 ft 4 kts 214°
2026-05-05 18:01 -33.39518 -70.79584 1564 ft 4 kts 258°
2026-05-05 18:01 -33.39516 -70.79566 1564 ft 0 kts 267°
2026-05-05 18:04 -33.39516 -70.79577 1564 ft 3 kts 267°
2026-05-05 18:04 -33.39518 -70.79613 1564 ft 6 kts 267°
2026-05-05 18:04 -33.39521 -70.79674 1565 ft 9 kts 266°
2026-05-05 18:04 -33.39525 -70.79765 1565 ft 12 kts 267°
2026-05-05 18:05 -33.39529 -70.79871 1565 ft 14 kts 267°
2026-05-05 18:05 -33.39522 -70.79987 1567 ft 14 kts 276°
2026-05-05 18:05 -33.39452 -70.80048 1566 ft 15 kts 358°
2026-05-05 18:05 -33.39336 -70.80053 1566 ft 18 kts 357°
2026-05-05 18:06 -33.39192 -70.80062 1566 ft 22 kts 356°
2026-05-05 18:06 -33.39086 -70.80069 1567 ft 23 kts 357°
2026-05-05 18:06 -33.38862 -70.80080 1567 ft 25 kts 358°
2026-05-05 18:06 -33.38684 -70.80089 1567 ft 27 kts 358°
2026-05-05 18:07 -33.38494 -70.80099 1567 ft 28 kts 357°
2026-05-05 18:07 -33.38290 -70.80111 1566 ft 30 kts 357°
2026-05-05 18:07 -33.38078 -70.80122 1566 ft 31 kts 358°
2026-05-05 18:07 -33.37860 -70.80132 1566 ft 32 kts 358°
2026-05-05 18:08 -33.37637 -70.80145 1567 ft 32 kts 357°
2026-05-05 18:08 -33.37411 -70.80159 1567 ft 33 kts 357°
2026-05-05 18:08 -33.37193 -70.80169 1567 ft 25 kts 358°
2026-05-05 18:08 -33.37105 -70.80248 1569 ft 15 kts 283°
2026-05-05 18:09 -33.37129 -70.80351 1574 ft 12 kts 226°
2026-05-05 18:09 -33.37218 -70.80373 1573 ft 16 kts 176°
2026-05-05 18:09 -33.37438 -70.80361 1574 ft 56 kts 177°
2026-05-05 18:09 -33.38013 -70.80330 1572 ft 108 kts 177°
2026-05-05 18:10 -33.38939 -70.80281 1576 ft 155 kts 178°
2026-05-05 18:10 -33.40057 -70.80233 1992 ft 164 kts 177°
2026-05-05 18:10 -33.41205 -70.80188 2574 ft 165 kts 181°
2026-05-05 18:10 -33.42379 -70.80130 2989 ft 177 kts 179°
2026-05-05 18:11 -33.43684 -70.80076 3307 ft 197 kts 179°
2026-05-05 18:11 -33.45122 -70.80010 3701 ft 216 kts 178°
2026-05-05 18:11 -33.46706 -70.79914 3954 ft 245 kts 178°
2026-05-05 18:11 -33.48517 -70.79818 4401 ft 270 kts 178°
2026-05-05 18:12 -33.50447 -70.79713 5143 ft 282 kts 178°
2026-05-05 18:12 -33.52422 -70.79595 6069 ft 285 kts 178°
2026-05-05 18:12 -33.54402 -70.79466 6974 ft 287 kts 177°
2026-05-05 18:12 -33.56441 -70.79278 7645 ft 299 kts 176°
2026-05-05 18:13 -33.58516 -70.79033 8365 ft 307 kts 175°
2026-05-05 18:13 -33.60652 -70.78753 9101 ft 311 kts 175°
2026-05-05 18:13 -33.62827 -70.78473 9946 ft 318 kts 175°
2026-05-05 18:13 -33.65074 -70.78197 10407 ft 334 kts 176°
2026-05-05 18:14 -33.67466 -70.77928 10688 ft 355 kts 176°
2026-05-05 18:14 -33.69966 -70.77665 11279 ft 363 kts 176°
2026-05-05 18:14 -33.72497 -70.77401 11986 ft 367 kts 177°
2026-05-05 18:14 -33.75057 -70.77132 12709 ft 371 kts 178°
2026-05-05 18:15 -33.77649 -70.76856 13423 ft 376 kts 178°
2026-05-05 18:15 -33.80269 -70.76573 14079 ft 380 kts 178°
2026-05-05 18:15 -33.82913 -70.76287 14707 ft 384 kts 178°
2026-05-05 18:15 -33.85590 -70.75994 15331 ft 388 kts 179°
2026-05-05 18:16 -33.88295 -70.75697 15973 ft 391 kts 179°
2026-05-05 18:16 -33.91016 -70.75403 16593 ft 395 kts 180°
2026-05-05 18:16 -33.93760 -70.75442 17216 ft 393 kts 192°
2026-05-05 18:16 -33.96469 -70.75888 17878 ft 394 kts 195°
2026-05-05 18:17 -33.99198 -70.76352 18469 ft 397 kts 195°
2026-05-05 18:17 -34.01903 -70.76808 19040 ft 398 kts 195°
2026-05-05 18:17 -34.04697 -70.77276 19589 ft 401 kts 195°
2026-05-05 18:17 -34.07436 -70.77737 20126 ft 405 kts 195°
2026-05-05 18:18 -34.10240 -70.78210 20689 ft 407 kts 195°
2026-05-05 18:18 -34.13054 -70.78686 21242 ft 410 kts 195°
2026-05-05 18:18 -34.15890 -70.79165 21790 ft 413 kts 195°
2026-05-05 18:18 -34.18745 -70.79645 22342 ft 415 kts 195°
2026-05-05 18:19 -34.21610 -70.80128 22923 ft 418 kts 196°
2026-05-05 18:19 -34.24509 -70.80617 23442 ft 422 kts 196°
2026-05-05 18:19 -34.27423 -70.81110 23871 ft 425 kts 196°
2026-05-05 18:19 -34.29365 -70.81438 24162 ft 426 kts 196°
2026-05-05 18:20 -34.33309 -70.82105 24747 ft 429 kts 196°
2026-05-05 18:20 -34.35272 -70.82438 25030 ft 430 kts 196°
2026-05-05 18:20 -34.39248 -70.83115 25602 ft 433 kts 196°
2026-05-05 18:20 -34.42243 -70.83626 26035 ft 435 kts 196°
2026-05-05 18:21 -34.45219 -70.84132 26447 ft 437 kts 196°
2026-05-05 18:21 -34.48237 -70.84645 26877 ft 440 kts 197°
2026-05-05 18:21 -34.51282 -70.85162 27289 ft 442 kts 197°
2026-05-05 18:21 -34.54336 -70.85681 27711 ft 445 kts 197°
2026-05-05 18:22 -34.57416 -70.86208 28108 ft 447 kts 197°
2026-05-05 18:22 -34.60507 -70.86737 28533 ft 449 kts 197°
2026-05-05 18:22 -34.63603 -70.87265 28931 ft 450 kts 197°
2026-05-05 18:22 -34.66719 -70.87798 29309 ft 453 kts 197°
2026-05-05 18:23 -34.69848 -70.88335 29659 ft 456 kts 197°
2026-05-05 18:23 -34.73000 -70.88877 30035 ft 459 kts 197°
2026-05-05 18:23 -34.75100 -70.89238 30190 ft 461 kts 197°
2026-05-05 18:23 -34.79365 -70.89972 30621 ft 464 kts 197°
2026-05-05 18:24 -34.81488 -70.90338 30841 ft 465 kts 197°
2026-05-05 18:24 -34.84703 -70.90889 31159 ft 467 kts 198°
2026-05-05 18:24 -34.87930 -70.91442 31456 ft 470 kts 198°
2026-05-05 18:24 -34.91182 -70.91996 31822 ft 471 kts 198°
2026-05-05 18:25 -34.94418 -70.92546 32244 ft 470 kts 198°
2026-05-05 18:25 -34.96561 -70.92912 32492 ft 469 kts 198°
2026-05-05 18:25 -35.00895 -70.93656 33045 ft 469 kts 198°
2026-05-05 18:25 -35.04120 -70.94211 33446 ft 469 kts 199°
2026-05-05 18:26 -35.07352 -70.94766 33852 ft 468 kts 199°
2026-05-05 18:26 -35.10536 -70.95316 34241 ft 468 kts 199°
2026-05-05 18:26 -35.13752 -70.95873 34614 ft 467 kts 199°
2026-05-05 18:26 -35.16971 -70.96433 34893 ft 466 kts 199°
2026-05-05 18:27 -35.20162 -70.96985 34961 ft 461 kts 199°
2026-05-05 18:27 -35.26487 -70.98069 34958 ft 456 kts 200°
2026-05-05 18:28 -35.35891 -70.99711 34965 ft 455 kts 200°
2026-05-05 18:28 -35.42158 -71.00808 34962 ft 455 kts 200°
2026-05-05 18:29 -35.48425 -71.01902 34981 ft 454 kts 200°
2026-05-05 18:29 -35.54643 -71.02988 34960 ft 454 kts 200°
2026-05-05 18:30 -35.60885 -71.04080 34949 ft 453 kts 200°
2026-05-05 18:30 -35.67137 -71.05174 34942 ft 453 kts 200°
2026-05-05 18:31 -35.73388 -71.06271 34975 ft 454 kts 200°
2026-05-05 18:31 -35.79643 -71.07375 34951 ft 453 kts 200°
2026-05-05 18:32 -35.85889 -71.08467 34947 ft 453 kts 200°
2026-05-05 18:32 -35.92134 -71.09561 34946 ft 453 kts 200°
2026-05-05 18:33 -35.98372 -71.10668 34975 ft 453 kts 200°
2026-05-05 18:33 -36.04570 -71.11764 34955 ft 453 kts 200°
2026-05-05 18:34 -36.10806 -71.12869 34944 ft 453 kts 200°
2026-05-05 18:34 -36.17025 -71.13970 34920 ft 449 kts 201°
2026-05-05 18:35 -36.23233 -71.15080 34939 ft 451 kts 201°
2026-05-05 18:35 -36.29482 -71.16191 34937 ft 453 kts 201°
2026-05-05 18:36 -36.35662 -71.17285 34919 ft 451 kts 201°
2026-05-05 18:36 -36.41885 -71.18397 34924 ft 452 kts 201°
2026-05-05 18:37 -36.48122 -71.19514 34945 ft 452 kts 201°
2026-05-05 18:37 -36.54343 -71.20629 34940 ft 451 kts 201°
2026-05-05 18:38 -36.60574 -71.21746 34943 ft 453 kts 201°
2026-05-05 18:38 -36.66796 -71.22864 34935 ft 452 kts 201°
2026-05-05 18:39 -36.72974 -71.23978 34936 ft 451 kts 200°
2026-05-05 18:39 -36.79180 -71.25100 34927 ft 451 kts 201°
2026-05-05 18:40 -36.85386 -71.26218 34928 ft 451 kts 200°
2026-05-05 18:40 -36.91591 -71.27336 34917 ft 450 kts 201°
2026-05-05 18:41 -36.97789 -71.28473 34925 ft 450 kts 201°
2026-05-05 18:41 -37.03986 -71.29602 34925 ft 450 kts 200°
2026-05-05 18:42 -37.10191 -71.30720 34915 ft 450 kts 200°
2026-05-05 18:42 -37.16354 -71.31842 34925 ft 450 kts 200°
2026-05-05 18:43 -37.19468 -71.32410 34821 ft 449 kts 200°
2026-05-05 18:43 -37.22509 -71.32962 34594 ft 445 kts 200°
2026-05-05 18:43 -37.25573 -71.33519 34347 ft 443 kts 200°
2026-05-05 18:43 -37.28627 -71.34075 34110 ft 441 kts 200°
2026-05-05 18:44 -37.31658 -71.34631 33867 ft 440 kts 200°
2026-05-05 18:44 -37.34692 -71.35193 33587 ft 438 kts 200°
2026-05-05 18:44 -37.37707 -71.35751 33320 ft 436 kts 200°
2026-05-05 18:44 -37.40665 -71.36297 33054 ft 433 kts 200°
2026-05-05 18:45 -37.43663 -71.36851 32096 ft 442 kts 200°
2026-05-05 18:45 -37.46736 -71.37425 31207 ft 447 kts 200°
2026-05-05 18:45 -37.49778 -71.37977 30802 ft 438 kts 200°
2026-05-05 18:45 -37.52778 -71.38515 30363 ft 433 kts 200°
2026-05-05 18:46 -37.55756 -71.39055 29907 ft 430 kts 200°
2026-05-05 18:46 -37.58704 -71.39595 29448 ft 427 kts 200°
2026-05-05 18:46 -37.61627 -71.40132 29035 ft 423 kts 200°
2026-05-05 18:46 -37.64526 -71.40667 28622 ft 419 kts 199°
2026-05-05 18:47 -37.67396 -71.41196 28223 ft 416 kts 199°
2026-05-05 18:47 -37.70217 -71.41719 27833 ft 412 kts 199°
2026-05-05 18:47 -37.73076 -71.42251 27414 ft 409 kts 199°
2026-05-05 18:47 -37.75845 -71.42767 27021 ft 407 kts 200°
2026-05-05 18:48 -37.78642 -71.43288 26607 ft 405 kts 200°
2026-05-05 18:48 -37.81426 -71.43806 26201 ft 404 kts 200°
2026-05-05 18:48 -37.84203 -71.44325 25782 ft 402 kts 200°
2026-05-05 18:48 -37.86970 -71.44845 25365 ft 401 kts 199°
2026-05-05 18:49 -37.89733 -71.45361 24925 ft 401 kts 199°
2026-05-05 18:49 -37.92497 -71.45876 24481 ft 401 kts 199°
2026-05-05 18:49 -37.95264 -71.46391 24028 ft 402 kts 199°
2026-05-05 18:49 -37.98023 -71.46904 23585 ft 400 kts 199°
2026-05-05 18:50 -38.00784 -71.47418 23098 ft 400 kts 200°
2026-05-05 18:50 -38.03504 -71.47924 22631 ft 400 kts 200°
2026-05-05 18:50 -38.06256 -71.48435 22176 ft 398 kts 200°
2026-05-05 18:50 -38.08987 -71.48940 21788 ft 395 kts 200°
2026-05-05 18:51 -38.11702 -71.49445 21387 ft 391 kts 200°
2026-05-05 18:51 -38.14392 -71.49947 20813 ft 390 kts 200°
2026-05-05 18:51 -38.17060 -71.50445 20368 ft 384 kts 200°
2026-05-05 18:51 -38.19699 -71.50937 19931 ft 382 kts 200°
2026-05-05 18:52 -38.22322 -71.51432 19481 ft 380 kts 200°
2026-05-05 18:52 -38.24936 -71.51926 19046 ft 378 kts 200°
2026-05-05 18:52 -38.27523 -71.52411 18639 ft 374 kts 200°
2026-05-05 18:52 -38.30095 -71.52892 18181 ft 373 kts 200°
2026-05-05 18:53 -38.32652 -71.53370 17732 ft 370 kts 199°
2026-05-05 18:53 -38.35154 -71.53839 17285 ft 366 kts 199°
2026-05-05 18:53 -38.37681 -71.54320 16845 ft 366 kts 199°
2026-05-05 18:53 -38.40191 -71.54800 16418 ft 364 kts 199°
2026-05-05 18:54 -38.42689 -71.55276 16002 ft 360 kts 199°
2026-05-05 18:54 -38.45158 -71.55739 15588 ft 358 kts 199°
2026-05-05 18:54 -38.47619 -71.56201 15162 ft 357 kts 198°
2026-05-05 18:54 -38.50061 -71.56688 14751 ft 350 kts 202°
2026-05-05 18:55 -38.52365 -71.57454 14389 ft 345 kts 205°
2026-05-05 18:55 -38.54680 -71.58247 14020 ft 345 kts 205°
2026-05-05 18:55 -38.56994 -71.59034 13631 ft 344 kts 205°
2026-05-05 18:55 -38.59310 -71.59820 13218 ft 345 kts 204°
2026-05-05 18:56 -38.61627 -71.60605 12837 ft 342 kts 204°
2026-05-05 18:56 -38.63926 -71.61383 12466 ft 340 kts 204°
2026-05-05 18:56 -38.66201 -71.62153 12087 ft 336 kts 204°
2026-05-05 18:56 -38.68448 -71.62912 11724 ft 331 kts 204°
2026-05-05 18:57 -38.70664 -71.63660 11363 ft 328 kts 203°
2026-05-05 18:57 -38.72857 -71.64401 11008 ft 324 kts 203°
2026-05-05 18:57 -38.74997 -71.65127 10670 ft 321 kts 203°
2026-05-05 18:57 -38.77126 -71.65849 10420 ft 312 kts 206°
2026-05-05 18:58 -38.79196 -71.66566 10102 ft 308 kts 202°
2026-05-05 18:58 -38.81258 -71.67279 9774 ft 306 kts 201°
2026-05-05 18:58 -38.83326 -71.67985 9498 ft 307 kts 201°
2026-05-05 18:58 -38.85387 -71.68682 9161 ft 308 kts 201°
2026-05-05 18:59 -38.87448 -71.69383 9009 ft 304 kts 201°
2026-05-05 18:59 -38.89478 -71.70076 8665 ft 301 kts 201°
2026-05-05 18:59 -38.91495 -71.70771 8235 ft 299 kts 201°
2026-05-05 18:59 -38.93502 -71.71461 7873 ft 297 kts 201°
2026-05-05 19:00 -38.95492 -71.72144 7434 ft 296 kts 199°
2026-05-05 19:00 -38.97466 -71.72821 7053 ft 292 kts 199°
2026-05-05 19:00 -38.99417 -71.73486 6793 ft 287 kts 200°
2026-05-05 19:00 -39.01350 -71.74146 6388 ft 284 kts 200°
2026-05-05 19:01 -39.03207 -71.74780 6073 ft 279 kts 201°
2026-05-05 19:01 -39.05097 -71.75431 5739 ft 275 kts 200°
2026-05-05 19:01 -39.06915 -71.76060 5425 ft 272 kts 200°
2026-05-05 19:01 -39.08721 -71.76706 5122 ft 266 kts 194°
2026-05-05 19:02 -39.10493 -71.77346 4850 ft 262 kts 198°
2026-05-05 19:02 -39.12226 -71.77985 4599 ft 258 kts 198°
2026-05-05 19:02 -39.13905 -71.78625 4414 ft 246 kts 207°
2026-05-05 19:02 -39.15490 -71.79290 4190 ft 233 kts 200°
2026-05-05 19:03 -39.17008 -71.79923 3989 ft 226 kts 200°
2026-05-05 19:03 -39.18496 -71.80541 3792 ft 222 kts 199°
2026-05-05 19:03 -39.19938 -71.81125 3603 ft 213 kts 197°
2026-05-05 19:03 -39.21307 -71.81678 3460 ft 199 kts 198°
2026-05-05 19:04 -39.22647 -71.81992 3265 ft 193 kts 183°
2026-05-05 19:04 -39.23990 -71.82087 3108 ft 196 kts 185°
2026-05-05 19:04 -39.25356 -71.82210 2890 ft 194 kts 185°
2026-05-05 19:04 -39.26680 -71.82326 2732 ft 183 kts 184°
2026-05-05 19:05 -39.27873 -71.82437 2578 ft 160 kts 188°
2026-05-05 19:05 -39.28813 -71.83005 2448 ft 146 kts 223°
2026-05-05 19:05 -39.29419 -71.84006 2176 ft 138 kts 237°
2026-05-05 19:05 -39.29963 -71.85002 2051 ft 134 kts 236°
2026-05-05 19:06 -39.30505 -71.85989 1978 ft 136 kts 236°
2026-05-05 19:06 -39.31076 -71.86973 1967 ft 137 kts 235°
2026-05-05 19:06 -39.31593 -71.88008 1766 ft 138 kts 245°
2026-05-05 19:06 -39.31875 -71.89173 1841 ft 129 kts 274°
2026-05-05 19:07 -39.31489 -71.90098 2275 ft 115 kts 315°
2026-05-05 19:07 -39.31109 -71.90617 2502 ft 126 kts 313°
2026-05-05 19:07 -39.30110 -71.91626 2694 ft 141 kts 335°
2026-05-05 19:07 -39.29201 -71.91996 2377 ft 134 kts 345°
2026-05-05 19:08 -39.28282 -71.92261 1874 ft 142 kts 352°
2026-05-05 19:08 -39.27279 -71.92144 1164 ft 155 kts
2026-05-05 19:08 -39.26136 -71.91971 1154 ft 181 kts
2026-05-05 19:08 -39.24976 -71.91633 2279 ft 146 kts 33°
2026-05-05 19:09 -39.24383 -71.90786 3340 ft 128 kts 52°
2026-05-05 19:09 -39.23781 -71.89740 3790 ft 159 kts 50°
2026-05-05 19:09 -39.23027 -71.88610 4648 ft 169 kts 35°
2026-05-05 19:09 -39.22253 -71.87575 5738 ft 154 kts 39°
2026-05-05 19:10 -39.21487 -71.86573 6496 ft 167 kts 36°
2026-05-05 19:10 -39.20631 -71.85389 6755 ft 193 kts 39°
2026-05-05 19:10 -39.19615 -71.84026 7048 ft 227 kts 36°
2026-05-05 19:10 -39.18400 -71.82586 7691 ft 246 kts 27°
2026-05-05 19:11 -39.16832 -71.81647 8280 ft 254 kts 13°
2026-05-05 19:11 -39.15247 -71.80450 8843 ft 281 kts 26°
2026-05-05 19:11 -39.13587 -71.78954 9410 ft 301 kts 27°
2026-05-05 19:11 -39.11827 -71.77344 9944 ft 314 kts 27°
2026-05-05 19:12 -39.10070 -71.75722 10446 ft 308 kts 27°
2026-05-05 19:12 -39.08310 -71.74256 10957 ft 292 kts 16°
2026-05-05 19:12 -39.06427 -71.73581 11413 ft 274 kts 357°
2026-05-05 19:12 -39.04574 -71.73751 11753 ft 263 kts 339°
2026-05-05 19:13 -39.02922 -71.74671 12122 ft 257 kts 323°
2026-05-05 19:13 -39.01608 -71.76187 12500 ft 252 kts 308°
2026-05-05 19:13 -39.00741 -71.78091 12983 ft 249 kts 293°
2026-05-05 19:13 -39.00361 -71.80270 13351 ft 254 kts 279°
2026-05-05 19:14 -39.00531 -71.82561 13738 ft 263 kts 266°
2026-05-05 19:14 -39.00900 -71.84904 13818 ft 271 kts 265°
2026-05-05 19:14 -39.01279 -71.87297 13855 ft 278 kts 266°
2026-05-05 19:14 -39.01666 -71.89804 13846 ft 291 kts 266°
2026-05-05 19:15 -39.01859 -71.92407 13853 ft 294 kts 279°
2026-05-05 19:15 -39.01596 -71.94117 13852 ft 294 kts 289°
2026-05-05 19:15 -39.01014 -71.96607 13845 ft 290 kts 290°
2026-05-05 19:15 -39.00225 -71.99922 13839 ft 289 kts 290°
2026-05-05 19:16 -38.99833 -72.01558 13838 ft 289 kts 290°
2026-05-05 19:16 -38.99238 -72.04029 13850 ft 289 kts 290°
2026-05-05 19:16 -38.98647 -72.06481 13630 ft 285 kts 290°
2026-05-05 19:16 -38.98060 -72.08913 13233 ft 284 kts 290°
2026-05-05 19:17 -38.97474 -72.11345 12969 ft 286 kts 290°
2026-05-05 19:17 -38.96884 -72.13785 12699 ft 286 kts 290°
2026-05-05 19:17 -38.96301 -72.16192 12445 ft 285 kts 290°
2026-05-05 19:17 -38.95713 -72.18627 12187 ft 285 kts 290°
2026-05-05 19:18 -38.95126 -72.21058 11931 ft 284 kts 290°
2026-05-05 19:18 -38.94541 -72.23479 11684 ft 284 kts 290°
2026-05-05 19:18 -38.93955 -72.25897 11445 ft 283 kts 289°
2026-05-05 19:18 -38.93367 -72.28320 11196 ft 285 kts 289°
2026-05-05 19:19 -38.92783 -72.30727 10956 ft 285 kts 289°
2026-05-05 19:19 -38.92193 -72.33157 10712 ft 284 kts 289°
2026-05-05 19:19 -38.91608 -72.35570 10468 ft 279 kts 290°
2026-05-05 19:19 -38.91038 -72.37924 10226 ft 273 kts 290°
2026-05-05 19:20 -38.90480 -72.40223 9972 ft 267 kts 290°
2026-05-05 19:20 -38.89932 -72.42477 9755 ft 262 kts 291°
2026-05-05 19:20 -38.89646 -72.44786 9571 ft 269 kts 271°
2026-05-05 19:20 -38.90284 -72.47084 9383 ft 285 kts 241°
2026-05-05 19:21 -38.91854 -72.48719 9205 ft 302 kts 211°
2026-05-05 19:21 -38.93786 -72.49774 9033 ft 300 kts 207°
2026-05-05 19:21 -38.95702 -72.50720 8847 ft 299 kts 206°
2026-05-05 19:21 -38.97652 -72.51654 8665 ft 298 kts 206°
2026-05-05 19:22 -38.99595 -72.52587 8492 ft 299 kts 206°
2026-05-05 19:22 -39.01539 -72.53536 8101 ft 300 kts 207°
2026-05-05 19:22 -39.03494 -72.54507 7672 ft 301 kts 207°
2026-05-05 19:22 -39.05456 -72.55492 7244 ft 301 kts 207°
2026-05-05 19:23 -39.07413 -72.56480 6825 ft 302 kts 207°
2026-05-05 19:23 -39.09379 -72.57475 6394 ft 304 kts 207°
2026-05-05 19:23 -39.11332 -72.58461 5953 ft 306 kts 207°
2026-05-05 19:23 -39.13317 -72.59460 5523 ft 306 kts 207°
2026-05-05 19:24 -39.15110 -72.60817 5111 ft 293 kts 231°
2026-05-05 19:24 -39.16194 -72.62915 4763 ft 274 kts 257°
2026-05-05 19:24 -39.16463 -72.65261 4388 ft 259 kts 280°
2026-05-05 19:24 -39.16054 -72.67460 4053 ft 248 kts 292°
2026-05-05 19:25 -39.15546 -72.69556 3966 ft 244 kts 291°
2026-05-05 19:25 -39.14993 -72.71611 3965 ft 241 kts 300°
2026-05-05 19:25 -39.13815 -72.73041 3968 ft 237 kts 337°
2026-05-05 19:25 -39.12171 -72.73212 3975 ft 243 kts
2026-05-05 19:26 -39.10541 -72.72547 3774 ft 250 kts 21°
2026-05-05 19:26 -39.08958 -72.71674 3462 ft 245 kts 15°
2026-05-05 19:26 -39.07363 -72.71007 3149 ft 236 kts 13°
2026-05-05 19:26 -39.05816 -72.70401 2844 ft 227 kts 13°
2026-05-05 19:27 -39.04335 -72.69817 2541 ft 218 kts 15°
2026-05-05 19:27 -39.02936 -72.69261 2265 ft 201 kts 15°
2026-05-05 19:27 -39.01665 -72.68756 2005 ft 181 kts 15°
2026-05-05 19:27 -39.00533 -72.68306 1800 ft 162 kts 15°
2026-05-05 19:28 -38.99527 -72.67908 1577 ft 140 kts 15°
2026-05-05 19:28 -38.98635 -72.67554 1386 ft 129 kts 17°
2026-05-05 19:28 -38.97791 -72.67221 1199 ft 125 kts 17°
2026-05-05 19:28 -38.96960 -72.66885 1066 ft 126 kts 18°
2026-05-05 19:29 -38.96134 -72.66551 875 ft 122 kts 15°
2026-05-05 19:29 -38.95312 -72.66233 713 ft 123 kts 15°
2026-05-05 19:29 -38.94488 -72.65912 510 ft 124 kts 16°
2026-05-05 19:29 -38.93671 -72.65587 362 ft 122 kts 16°
2026-05-05 19:30 -38.92919 -72.65293 315 ft 90 kts 17°
2026-05-05 19:30 -38.92551 -72.65146 314 ft 40 kts 17°
2026-05-05 19:30 -38.92363 -72.65016 314 ft 19 kts 94°
2026-05-05 19:30 -38.92391 -72.64873 313 ft 16 kts 107°
2026-05-05 19:31 -38.92444 -72.64781 314 ft 11 kts 183°
2026-05-05 19:31 -38.92518 -72.64816 313 ft 12 kts 200°
2026-05-05 19:31 -38.92598 -72.64849 313 ft 13 kts 197°
2026-05-05 19:31 -38.92684 -72.64883 313 ft 12 kts 198°
2026-05-05 19:32 -38.92734 -72.64838 313 ft 9 kts 102°
2026-05-05 19:32 -38.92742 -72.64800 313 ft 3 kts 106°
2026-05-05 19:32 -38.92747 -72.64777 313 ft 0 kts 107°